This demonstration page uses our WeatherBlox Daily Observations layout. Learn more.

Left ArrowRight Arrow

Hourly Observations for May 3, 2015

Temp ( °F °C ) Dew Point ( °F °C ) Humidity (%) Winds ( mph kmh ) Pressure ( in mb ) Visibility ( mi km ) Precip ( " mm )
12:52 am 00:52 Cloudy with Thunderstorms 62 16.7 58 14.4 86 86 W 6 9 29.85 1011 5 8 0.21 5.33
1:52 am 01:52 Cloudy with Thunderstorms 60 15.6 59 15 96 96 E 10 17 29.81 1010 8 13 0.10 2.54
2:52 am 02:52 Cloudy with Thunderstorms 61 16.1 59 15 93 93 SE 7 11 29.81 1010 10 16 0.12 3.05
3:22 am 03:22 Cloudy with Light Rain 61 16 59 15 94 94 SSE 8 13 29.77 1008 10 16 0.00 0.00
3:39 am 03:39 Cloudy with Thunderstorms 60 15.6 58 14.4 93 93 SSE 6 9 29.77 1008 10 16 0.12 3.05
3:52 am 03:52 Cloudy with Thunderstorms 61 16.1 58 14.4 90 90 SE 15 24 29.76 1008 10 16 0.12 3.05
4:46 am 04:46 Mostly Cloudy 61 16 57 14 88 88 SSE 14 22 29.74 1007 10 16 0.00 0.00
4:52 am 04:52 Mostly Cloudy 60 15.6 57 13.9 90 90 SSE 13 20 29.75 1008 10 16 0.03 0.76
5:52 am 05:52 Mostly Cloudy 61 16.1 56 13.3 84 84 S 14 22 29.72 1007 10 16 0.00 0.00
6:52 am 06:52 Mostly Cloudy 62 16.7 56 13.3 80 80 S 15 24 29.72 1006 10 16 0.00 0.00
7:52 am 07:52 Mostly Cloudy 63 17.2 56 13.3 78 78 SSE 16 26 29.73 1007 10 16 0.00 0.00
8:52 am 08:52 Mostly Cloudy 67 19.4 58 14.4 73 73 S 13 20 29.73 1007 10 16 0.00 0.00
9:52 am 09:52 Mostly Cloudy 70 21.1 59 15 68 68 S 13 20 29.73 1007 10 16 0.00 0.00
10:52 am 10:52 Mostly Cloudy 73 22.8 60 15.6 64 64 SSW 13 20 29.72 1007 10 16 0.00 0.00
11:52 am 11:52 Mostly Cloudy 76 24.4 60 15.6 58 58 S 12 19 29.73 1007 10 16 0.00 0.00
12:52 pm 12:52 Mostly Cloudy 80 26.7 60 15.6 51 51 SSW 12 19 29.73 1007 10 16 0.00 0.00
1:52 pm 13:52 Mostly Cloudy 81 27.2 59 15 47 47 S 14 22 29.72 1006 10 16 0.00 0.00
2:52 pm 14:52 Mostly Cloudy 80 26.7 59 15 49 49 S 9 15 29.71 1006 10 16 0.00 0.00
3:52 pm 15:52 Mostly Cloudy 80 26.7 60 15.6 51 51 SE 8 13 29.71 1006 10 16 0.00 0.00
4:52 pm 16:52 Mostly Cloudy 81 27.2 61 16.1 51 51 SE 6 9 29.70 1006 10 16 0.00 0.00
5:52 pm 17:52 Mostly Cloudy 79 26.1 60 15.6 52 52 SSE 12 19 29.70 1006 10 16 0.00 0.00
6:52 pm 18:52 Mostly Cloudy 77 25 59 15 54 54 S 7 11 29.71 1006 10 16 0.00 0.00
7:52 pm 19:52 Mostly Cloudy with Light Rain 75 23.9 61 16.1 62 62 SSE 21 33 29.70 1006 10 16 0.00 0.03
8:48 pm 20:48 Mostly Cloudy with Thunderstorms 73 23 61 16 65 65 NNW 6 9 29.71 1006 10 16 0.00 0.00
8:52 pm 20:52 Mostly Cloudy with Thunderstorms 76 24.4 58 14.4 54 54 NW 13 20 29.75 1008 10 16 0.00 0.03
9:52 pm 21:52 Cloudy with Nearby Thunderstorms 74 23.3 57 13.9 56 56 NNW 14 22 29.80 1009 10 16 0.00 0.03
10:52 pm 22:52 Cloudy with Nearby Thunderstorms 73 22.8 54 12.2 51 51 SSW 6 9 29.79 1009 10 16 0.00 0.00
11:52 pm 23:52 Mostly Cloudy with Nearby Thunderstorms 68 20 56 13.3 65 65 N 14 22 29.83 1010 10 16 0.00 0.00
11:57 pm 23:57 Mostly Cloudy 67 19.4 56 13.3 68 68 NNW 14 22 29.83 1010 10 16 0.00 0.00

Powered by AerisWeather